Waarnemingen

Advertentie
Mijn weer
La Coruna, Spanje (8001): temperatuur & dauwpunt: 13.10.2018 11:00:00 - 19.10.2018 11:00:00 (CEST)La Coruna, Spanje (8001): windsnelheid: 13.10.2018 11:00:00 - 19.10.2018 11:00:00 (CEST)La Coruna, Spanje (8001): windrichting: 13.10.2018 11:00:00 - 19.10.2018 11:00:00 (CEST)La Coruna, Spanje (8001): luchtdruk: 13.10.2018 11:00:00 - 19.10.2018 11:00:00 (CEST)La Coruna, Spanje (8001): zicht: 13.10.2018 11:00:00 - 19.10.2018 11:00:00 (CEST)La Coruna, Spanje (8001): neerslag: 13.10.2018 11:00:00 - 19.10.2018 11:00:00 (CEST)
Datum & Tijd tt [°C] td [°C] ff [km/u] ff [kn] dd ppp [hPa] vv [km] rr [mm]
19.10.2018 11:00:00 - - - - - - - -
19.10.2018 10:00:00 15,5 15,5 15 8 NNO 1019,7 4,0 0,0
19.10.2018 09:00:00 15,3 15,3 15 8 N 1019,4 4,2 0,0
19.10.2018 08:00:00 15,2 15,2 15 8 N 1019,0 5 -
19.10.2018 07:00:00 15,0 14,7 21 11 N 1018,7 1,8 0,0
19.10.2018 06:00:00 15,2 14,4 8 4 N 1018,4 3,6 0,0
19.10.2018 05:00:00 15,5 14,9 13 7 NNO 1018,6 6 -
19.10.2018 04:00:00 15,6 14,1 13 7 NO 1019,5 9 0,0
19.10.2018 03:00:00 15,3 14,7 4 2 NO 1019,8 4,0 0,0
19.10.2018 02:00:00 15,5 15,0 15 8 N 1019,6 6 -
19.10.2018 01:00:00 15,6 15,1 18 10 NNO 1019,6 3,7 0,0
19.10.2018 00:00:00 15,4 14,9 16 9 NNO 1019,7 4,2 0,0
18.10.2018 23:00:00 15,5 15,0 16 9 N 1019,4 6 -
18.10.2018 22:00:00 15,5 15,0 21 11 NNO 1018,7 4,3 0,0
18.10.2018 21:00:00 15,6 15,1 16 9 N 1018,4 - 0,0
18.10.2018 20:00:00 15,4 14,8 15 8 N 1017,9 - -
18.10.2018 19:00:00 15,6 14,5 21 11 N 1017,9 8 0,0
18.10.2018 18:00:00 15,8 14,5 24 13 N 1017,7 8 0,0
18.10.2018 17:00:00 16,1 14,5 16 9 N 1017,6 7 -
18.10.2018 16:00:00 16,3 14,3 16 9 N 1017,6 8 0,0
18.10.2018 15:00:00 17,1 14,4 16 9 N 1017,8 10 0,0
18.10.2018 14:00:00 16,4 14,1 22 12 NO 1018,3 15 -
18.10.2018 13:00:00 15,7 13,9 18 10 NNO 1018,8 8 0,0
18.10.2018 12:00:00 16,1 13,8 15 8 N 1018,7 9 0,0
18.10.2018 11:00:00 16,3 12,8 15 8 NO 1018,3 20 -
18.10.2018 10:00:00 15,6 12,3 22 12 ONO 1017,6 15 0,0
18.10.2018 09:00:00 15,6 12,7 24 13 NO 1017,1 16 0,0
18.10.2018 08:00:00 15,6 13,3 24 13 NO 1016,4 15 -
18.10.2018 07:00:00 15,1 14,0 16 9 NO 1016,1 10 0,0
18.10.2018 06:00:00 15,0 13,7 11 6 ONO 1015,7 11 0,0
18.10.2018 05:00:00 14,4 13,8 9 5 NNO 1015,7 15 -
18.10.2018 04:00:00 14,2 13,7 9 5 NNO 1015,5 4,5 0,0
18.10.2018 03:00:00 14,4 14,1 8 4 NNW 1015,6 - 0,0
18.10.2018 02:00:00 14,4 14,1 9 5 N 1015,9 20 -
18.10.2018 01:00:00 14,3 13,8 9 5 N 1016,0 6 0,0
18.10.2018 00:00:00 14,2 13,6 13 7 NNO 1016,2 - 0,0
17.10.2018 23:00:00 13,7 13,5 15 8 NO 1016,3 10 -
17.10.2018 22:00:00 13,5 13,2 13 7 NO 1016,2 3,1 1,0
17.10.2018 21:00:00 14,1 13,8 8 4 N 1015,8 3,9 0,6
17.10.2018 20:00:00 14,2 13,4 5 3 N 1015,5 10 -
17.10.2018 19:00:00 14,3 13,8 8 4 NNW 1015,0 11 0,0
17.10.2018 18:00:00 14,1 13,8 8 4 N 1015,3 9 1,0
17.10.2018 17:00:00 13,9 13,6 11 6 NNW 1015,7 7 -
17.10.2018 16:00:00 14,6 14,0 11 6 NW 1016,0 6 1,0
17.10.2018 15:00:00 14,6 13,6 15 8 W 1016,3 3,0 2,0
17.10.2018 14:00:00 15,8 13,3 13 7 W 1016,7 10 -
17.10.2018 13:00:00 15,5 12,6 11 6 W 1017,1 12 0,0
17.10.2018 12:00:00 15,5 12,6 5 3 NNW 1017,3 10 0,0
17.10.2018 11:00:00 14,9 12,4 2 1 ONO 1017,4 5 -
17.10.2018 10:00:00 13,7 11,9 8 4 Z 1017,7 10 0,0
17.10.2018 09:00:00 13,3 12,0 9 5 ZZO 1017,8 8 0,0
17.10.2018 08:00:00 13,6 12,3 5 3 ZO 1018,1 8 -
17.10.2018 07:00:00 13,9 12,6 8 4 O 1018,3 8 0,0
17.10.2018 06:00:00 14,3 12,7 5 3 Z 1018,3 10 0,0
17.10.2018 05:00:00 14,7 12,7 5 3 ZZO 1018,5 15 -
17.10.2018 04:00:00 15,0 13,2 4 2 O 1018,8 13 0,0
17.10.2018 03:00:00 15,0 13,2 2 1 NW 1019,3 17 0,0
17.10.2018 02:00:00 15,2 13,4 4 2 WNW 1019,6 15 -
17.10.2018 01:00:00 15,2 14,1 2 1 W 1020,0 13 0,0
17.10.2018 00:00:00 15,3 14,3 2 1 N 1020,1 11 0,0
16.10.2018 23:00:00 15,2 14,2 4 2 W 1020,0 20 -
16.10.2018 22:00:00 15,1 14,1 4 2 W 1019,7 10 0,0
16.10.2018 21:00:00 15,4 14,3 4 2 NNW 1019,7 15 0,0
16.10.2018 20:00:00 15,5 14,2 5 3 NW 1019,3 14 -
16.10.2018 19:00:00 15,8 14,5 9 5 WNW 1019,1 15 0,0
16.10.2018 18:00:00 16,5 14,3 9 5 WNW 1018,7 18 0,0
16.10.2018 17:00:00 17,7 14,0 13 7 W 1018,5 20 -
16.10.2018 16:00:00 18,3 13,8 9 5 NNW 1018,2 20 0,0
16.10.2018 15:00:00 18,2 12,6 9 5 NNW 1018,4 19 0,0
16.10.2018 14:00:00 18,9 12,2 5 3 NO 1018,4 20 -
16.10.2018 13:00:00 18,4 11,9 5 3 ONO 1018,3 20 0,0
16.10.2018 12:00:00 17,9 10,8 4 2 O 1018,0 19 0,0
16.10.2018 11:00:00 15,5 10,0 5 3 ZZO 1017,6 20 -
16.10.2018 10:00:00 13,4 10,0 4 2 OZO 1017,0 19 0,0
16.10.2018 09:00:00 11,8 10,2 2 1 O 1016,1 15 0,0
16.10.2018 08:00:00 12,4 10,3 5 3 ZO 1015,4 10 -
16.10.2018 07:00:00 12,9 10,4 5 3 ZO 1014,8 20 0,0
16.10.2018 06:00:00 12,9 10,8 5 3 Z 1014,4 20 0,0
16.10.2018 05:00:00 12,6 11,2 4 2 O 1014,0 10 -
16.10.2018 04:00:00 13,4 11,8 4 2 ZO 1013,6 20 0,0
16.10.2018 03:00:00 13,9 12,1 8 4 ZZO 1013,5 19 0,0
16.10.2018 02:00:00 14,1 12,7 4 2 ZO 1013,3 10 -
16.10.2018 01:00:00 14,7 13,2 5 3 ZO 1013,0 17 0,0
16.10.2018 00:00:00 15,0 13,4 0 0 N 1012,5 7 0,0
15.10.2018 23:00:00 15,8 13,6 4 2 ZO 1011,6 12 -
15.10.2018 22:00:00 16,2 13,5 5 3 OZO 1010,7 16 0,0
15.10.2018 21:00:00 16,5 13,4 4 2 O 1010,1 10 0,0
15.10.2018 20:00:00 17,3 13,4 2 1 WZW 1009,3 11 -
15.10.2018 19:00:00 17,4 13,1 4 2 NW 1008,4 11 0,0
15.10.2018 18:00:00 17,1 13,0 5 3 N 1007,7 11 0,0
15.10.2018 17:00:00 17,9 13,6 9 5 N 1007,1 20 -
15.10.2018 16:00:00 20,1 13,8 9 5 OZO 1006,0 20 0,0
15.10.2018 15:00:00 19,4 14,2 9 5 O 1006,0 20 0,0
15.10.2018 14:00:00 17,3 13,4 13 7 OZO 1005,4 20 -
15.10.2018 13:00:00 16,2 12,6 11 6 ZO 1005,2 16 0,0
15.10.2018 12:00:00 15,2 12,0 15 8 ZZO 1003,9 20 0,0
15.10.2018 11:00:00 14,1 12,0 18 10 ZO 1003,2 15 -
15.10.2018 10:00:00 13,2 11,8 16 9 ZO 1002,5 18 0,2
15.10.2018 09:00:00 12,9 11,6 13 7 ZO 1001,9 9 2,0
15.10.2018 08:00:00 13,2 11,6 11 6 ZO 1002,0 8 -
15.10.2018 07:00:00 13,0 10,9 18 10 ZZO 1001,5 19 0,0
15.10.2018 06:00:00 13,3 10,8 26 14 ZZO 1001,1 20 0,2
15.10.2018 05:00:00 13,1 10,5 22 12 ZZO 1001,4 12 -
15.10.2018 04:00:00 13,2 9,8 18 10 ZZO 1002,3 20 0,0
15.10.2018 03:00:00 14,2 9,6 21 11 ZZO 1004,6 20 0,0
15.10.2018 02:00:00 14,1 9,3 16 9 ZZO 1005,6 12 -
15.10.2018 01:00:00 14,1 9,3 16 9 Z 1007,6 17 0,0
15.10.2018 00:00:00 14,3 9,7 16 9 ZZO 1009,6 10 0,0
14.10.2018 23:00:00 14,2 9,2 16 9 Z 1010,5 12 -
14.10.2018 22:00:00 14,3 8,9 11 6 Z 1011,5 18 0,0
14.10.2018 21:00:00 14,3 10,1 9 5 ZZO 1011,9 16 0,0
14.10.2018 20:00:00 14,5 10,5 4 2 WZW 1012,2 18 -
14.10.2018 19:00:00 15,2 10,6 11 6 W 1012,4 19 0,0
14.10.2018 18:00:00 15,3 11,5 13 7 W 1012,7 19 0,0
14.10.2018 17:00:00 16,1 11,7 15 8 WNW 1013,1 18 -
14.10.2018 16:00:00 16,9 11,6 18 10 W 1013,6 20 0,0
14.10.2018 15:00:00 16,7 11,8 16 9 WNW 1013,8 19 0,0
14.10.2018 14:00:00 16,5 12,1 16 9 WNW 1014,0 22 -
14.10.2018 13:00:00 15,4 12,5 18 10 W 1014,5 14 0,0
14.10.2018 12:00:00 14,7 11,8 22 12 WNW 1013,9 14 0,0
14.10.2018 11:00:00 13,5 12,1 16 9 WNW 1012,9 15 -
14.10.2018 10:00:00 13,4 11,3 18 10 NW 1011,8 12 0,6
14.10.2018 09:00:00 13,5 11,4 21 11 WNW 1010,7 15 0,2
14.10.2018 08:00:00 12,5 11,4 8 4 W 1009,6 10 -
14.10.2018 07:00:00 12,5 11,2 4 2 OZO 1009,0 15 0,6
14.10.2018 06:00:00 12,3 10,5 5 3 ZZO 1008,3 13 0,2
14.10.2018 05:00:00 11,9 9,6 5 3 ZW 1008,1 12 -
14.10.2018 04:00:00 12,1 10,2 8 4 W 1008,1 9 0,8
14.10.2018 03:00:00 12,5 12,0 13 7 W 1007,9 7 2,0
14.10.2018 02:00:00 12,5 11,9 8 4 NW 1007,7 8 -
14.10.2018 01:00:00 12,7 12,1 5 3 W 1009,0 4,3 3,0
14.10.2018 00:00:00 12,6 11,8 8 4 NW 1008,9 6 3,0
13.10.2018 23:00:00 12,7 11,4 9 5 WNW 1009,9 8 -
13.10.2018 22:00:00 13,0 11,7 11 6 W 1010,1 8 0,4
13.10.2018 21:00:00 13,2 12,3 16 9 WNW 1010,5 9 0,8
13.10.2018 20:00:00 13,8 12,7 22 12 WNW 1011,1 - -
13.10.2018 19:00:00 14,7 12,9 22 12 W 1010,7 6 0,6
13.10.2018 18:00:00 22,4 13,7 22 12 ZZW 1009,1 20 0,0
13.10.2018 17:00:00 23,8 14,8 26 14 ZZW 1008,7 20 -
13.10.2018 16:00:00 24,8 14,0 26 14 ZZW 1008,7 20 0,0
13.10.2018 15:00:00 25,6 13,8 15 8 Z 1008,8 20 0,0
13.10.2018 14:00:00 24,5 14,3 21 11 Z 1009,7 25 -
13.10.2018 13:00:00 22,8 14,4 26 14 Z 1010,9 20 0,0
13.10.2018 12:00:00 21,7 14,3 24 13 Z 1011,4 20 0,0
13.10.2018 11:00:00 21,0 13,9 28 15 Z 1011,6 25 -

tt = temperatuur
td = dauwpunt
ff = windsnelheid
dd = windrichting
ppp = luchtdruk
vv = zicht
rr = neerslag

Weerstations in de omgeving